Location: Alagbado
(8.4000°N, 4.4667°E)
Time: 17:44:19
(UTC+00:00)

Daily predictions for brighter satellites

Satellite Brightness Start Highest point End
(mag) Time Altitude Azimuth Time Altitude Azimuth Time Altitude Azimuth
ARIANE 5 R/B 4.3 16:48:18 10° WSW 16:52:45 59° S 17:29:21 10° E
NATO 3D Rocket 4.1 18:05:02 10° WNW 18:10:20 63° NNE 18:17:43 10° ESE
DELTA 2 R/B (1) 3.9 18:05:30 10° NW 18:10:53 50° NE 18:16:17 10° ESE
Cosmos 1242 Rocket 3.4 18:11:03 10° NNW 18:14:29 53° W 18:17:58 10° S
Cosmos 2251 Rocket 3.6 18:12:03 10° S 18:17:14 55° ESE 18:22:26 10° NNE
Hubble Space Telescope 0.9 18:14:12 10° WSW 18:18:19 77° NNW 18:22:26 10° ENE
Cosmos 1455 Rocket 3.8 18:16:30 10° SSW 18:20:44 58° W 18:24:59 10° N
Cosmos 1953 3.7 18:18:19 10° SE 18:21:00 17° E 18:23:39 10° NE
STARLINK-52 4.4 18:18:51 10° S 18:21:16 20° ESE 18:23:40 10° ENE
ATLAS 5 CENTAUR R/B 3.1 18:19:39 10° SE 18:21:46 14° ESE 18:23:46 10° E
YAOGAN 1 3.0 18:17:47 10° SSE 18:21:49 40° ENE 18:25:52 10° N
Cosmos 2315 Rocket 4.1 18:17:07 10° S 18:23:14 58° E 18:29:24 10° NNE
GPS 2-17 Rocket1 3.4 18:19:14 10° WNW 18:24:00 70° SSW 18:28:40 11° ESE
Cosmos 2278 Rocket 2.2 18:19:19 10° NNW 18:24:57 76° ENE 18:30:37 10° SSE
Aureole 3 4.1 18:26:25 10° SSE 18:29:14 25° E 18:32:29 10° NNE
Okean-O 3.4 18:27:16 10° S 18:31:36 55° W 18:35:55 10° NNW
USA 229 DEB 4.3 18:25:19 10° NNW 18:32:54 73° WSW 18:40:34 10° SSE
USA 229 4.3 18:25:25 10° NNW 18:33:01 74° WSW 18:40:41 10° SSE
Cosmos 371 Rocket 3.3 18:28:13 10° NNW 18:33:03 85° WSW 18:37:55 10° S
Cosmos 1470 2.9 18:37:36 10° S 18:41:27 76° W 18:45:17 10° N
NOSS 3-1 (A) 4.3 18:32:50 10° NNW 18:41:30 84° ENE 18:50:27 10° SSE
Atlas Centaur 2 2.9 18:37:47 10° WNW 18:44:08 51° SW 18:48:38 13° SE
SL-24 R/B - RUBIN 2 4.4 18:40:12 10° S 18:44:22 33° ESE 18:49:01 10° NE
Cosmos 1674 3.4 18:40:48 10° NNW 18:44:24 54° W 18:48:01 10° S
FALCON 9 DEB 3.2 18:41:22 10° SSW 18:44:47 54° ESE 18:47:16 17° NE
Ariane Rocket 4.2 18:45:05 20° E 18:45:59 21° ENE 18:49:41 10° NNE
ATLAS 3B CENTAUR R/B 2.6 18:39:37 10° NW 18:46:40 38° NNE 18:48:50 22° ENE
Cosmos 1331 Rocket 4.1 18:44:05 10° N 18:49:04 52° ENE 18:54:04 10° SSE
ARIANE 5 R/B 3.0 18:48:58 10° SW 18:50:38 21° S 18:50:56 20° SSE
Cosmos 1626 2.5 18:48:04 10° NNE 18:51:30 38° E 18:52:57 26° SE
Cosmos 1892 Rocket 3.8 18:47:06 10° N 18:51:33 74° W 18:55:59 10° S
Cosmos 1943 3.3 18:47:04 10° SSW 18:52:41 82° WNW 18:58:20 10° NNE
Atlas 2A Centaur Rocket 3.4 18:54:17 10° WSW 18:55:18 12° SSW 18:56:12 10° S
Meteor 1-24 Rocket 3.5 18:51:29 10° N 18:56:47 82° E 19:02:05 10° S
Cosmos 1709 Rocket 4.0 18:51:40 10° N 18:57:32 51° E 19:03:25 10° SSE
CZ-2C R/B 4.0 18:54:49 10° NNE 18:59:11 42° E 19:03:28 10° S
Centaur D-1AR AC-39 1.6 18:53:46 10° WNW 18:59:37 75° NNE 19:00:55 37° E
HJ-1C 3.5 18:59:47 48° E 18:59:59 49° ENE 19:03:13 10° N
CSL-04 Rocket 3.6 18:54:42 10° SSE 19:00:04 87° WSW 19:05:22 10° NNW
Meteor 2-5 Rocket 4.3 18:56:33 10° NNW 19:01:56 57° W 19:07:21 10° S
ARIANE 5 DEB (SYLDA) 4.2 18:59:07 10° W 19:05:49 73° S 19:06:33 53° ESE
Cosmos 1110 Rocket 4.3 19:09:47 10° NNW 19:14:54 65° WSW 19:20:00 10° S
STARLINK-29 4.5 19:13:26 10° WSW 19:16:21 34° NW 19:17:33 25° N
CZ-2C R/B 4.0 19:19:53 30° NE 19:19:53 30° NE 19:22:56 10° N
Spelda 30 4.5 19:17:43 10° WSW 19:21:04 20° SSW 19:21:04 20° SSW
Cosmos 614 Rocket 3.8 19:16:52 10° S 19:22:03 74° ESE 19:27:15 10° NNE
Cosmos 407 Rocket 3.4 19:18:01 10° S 19:30:04 - NNE 19:22:55 58° ESE
CZ-4 R/B 4.4 19:23:45 10° SW 19:25:51 14° W 19:27:56 10° WNW
GPS 2-04 Rocket1 3.3 19:22:54 10° SW 19:26:00 50° SSW 19:26:00 50° SSW
ARGOS 4.0 19:32:59 35° NNE 19:32:59 35° NNE 19:36:20 10° N
OAO 3 Rocket 3.8 19:31:42 10° WNW 19:36:20 46° SW 19:36:35 46° SSW
H-2A R/B 4.1 19:34:41 10° NNW 19:36:47 12° NNW 19:37:51 11° N
Cosmos 1726 3.4 19:33:51 10° SSW 19:37:21 40° W 19:40:51 10° NNW
H-2A R/B 2.1 19:40:33 71° NNE 19:40:33 71° NNE 19:45:17 10° N
IRS-1A Rocket 4.1 19:42:07 81° SSE 19:42:25 88° ENE 19:48:04 10° NNW
Cosmos 1302 Rocket 4.3 19:46:28 10° NNW 19:51:18 64° WNW 19:51:18 64° WNW
Hubble Space Telescope 3.5 19:57:05 10° WNW 19:58:50 15° NW 19:58:50 15° NW
Cosmos 2297 4.5 19:57:20 10° NNW 20:02:46 47° WSW 20:03:12 46° WSW
ATLAS 5 CENTAUR R/B 3.9 20:03:05 10° WSW 20:05:30 19° WNW 20:05:30 19° WNW
ATLAS 5 CENTAUR R/B 3.7 20:00:44 10° WNW 20:06:15 43° N 20:09:52 36° NE
Centaur AC-42 4.1 20:03:50 10° NW 20:05:15 15° NNW 20:05:15 15° NNW
Mugunghwa Rocket 4.5 19:59:52 10° WNW 20:07:30 63° SW 20:07:30 63° SW
ARIANE 5 DEB (SYLDA) 4.3 20:10:24 10° W 20:24:26 46° SSW 20:24:26 46° SSW
